Regional Weather Roundup
Issued by NWS

Home | Current Version | Previous Version | Text Only | Print | Product List | Glossary On
Versions: 1 2 3 4 5 6 7 8 9 10 11 12 13 14 15 16 17 18 19 20 21 22 23 24 25 26 27 28 29 30 31 32 33 34 35 36 37 38 39 40 41 42 43 44 45 46 47 48 49 50
000
ASUS43 KLMK 211210
RWRKY
KENTUCKY REGIONAL WEATHER ROUNDUP
NATIONAL WEATHER SERVICE LOUISVILLE KY
800 AM EDT MON AUG 21 2017

NOTE "FAIR" INDICATES FEW OR NO CLOUDS BELOW 12,000 FEET
WITH NO SIGNIFICANT WEATHER AND/OR OBSTRUCTIONS TO VISIBILITY.

KYZ001>023-026-027-061>063-070>075-211300-
WESTERN AND SOUTH CENTRAL KENTUCKY

CITY           SKY/WX    TMP DP  RH WIND       PRES   REMARKS
PADUCAH        CLEAR     69  66  90 CALM      30.13R
HENDERSON      PTCLDY    67  66  97 CALM      30.15R
OWENSBORO      PTCLDY    71  67  87 CALM      30.15R
HOPKINSVILLE   PTCLDY    70  69  95 CALM      30.16R
BOWLING GREEN  CLEAR     71  70  96 CALM      30.17R
GLASGOW        CLEAR     68  68 100 CALM      30.18R
$$

KYZ024-025-028>034-038-045-046-053-211300-
NORTH CENTRAL KENTUCKY

CITY           SKY/WX    TMP DP  RH WIND       PRES   REMARKS
LOUISVILLE/SDF MOSUNNY   75  68  78 SE3       30.16R
LOUISVILLE/LOU SUNNY     73  70  90 CALM      30.17R
FORT KNOX      CLEAR     68  68 100 CALM      30.16R
$$

KYZ035>037-039>044-047>052-055>060-089>105-211300-
NORTHEAST KENTUCKY

CITY           SKY/WX    TMP DP  RH WIND       PRES   REMARKS
LEXINGTON      MOSUNNY   72  65  78 CALM      30.20R
COVINGTON      PTSUNNY   73  70  90 SW3       30.17R
FRANKFORT      SUNNY     69  65  86 CALM      30.18R
$$

KYZ054-064>069-076>088-106>120-211300-
SOUTHEAST KENTUCKY

CITY           SKY/WX    TMP DP  RH WIND       PRES   REMARKS
JACKSON        SUNNY     70  67  90 CALM      30.23R
LONDON         SUNNY     67  65  93 CALM      30.22R
SOMERSET       MOSUNNY   66  66 100 CALM      30.22R
MIDDLESBORO    FOG       66  66 100 CALM      30.25R VSB 1/4
MONTICELLO     SUNNY     67  67 100 VRB5      30.22R
$$




USA.gov is the U.S. government's official web portal to all federal, state and local government web resources and services.